• In Belarus
  • List of Countries
  • For 7 days
  • Water Temperature
  • Weather Map
  • Weather Widgets
  • user-avatar
    Login

    Hourly Weather Trinidad

    Today, 20 September, Friday

    Time Temperature Precipitation Wind Pressure Humidity
    00:00 +31°C° 0 mm 2 mps 740 mmHg 51%
    01:00 +31°C° 0 mm 2 mps 740 mmHg 53%
    02:00 +30°C° 0 mm 2 mps 740 mmHg 55%
    03:00 +30°C° 0 mm 1 mps 740 mmHg 56%
    04:00 +29°C° 0 mm 1 mps 740 mmHg 58%
    05:00 +29°C° 0 mm 1 mps 740 mmHg 60%
    06:00 +30°C° 0.2 mm 2 mps 741 mmHg 58%
    07:00 +31°C° 0.2 mm 2 mps 742 mmHg 56%
    08:00 +34°C° 0.2 mm 2 mps 743 mmHg 54%
    09:00 +36°C° 0 mm 2 mps 744 mmHg 46%
    10:00 +39°C° 0 mm 3 mps 744 mmHg 39%
    11:00 +42°C° 0 mm 3 mps 744 mmHg 31%
    12:00 +40°C° 0.2 mm 2 mps 743 mmHg 36%
    13:00 +38°C° 0.2 mm 2 mps 742 mmHg 41%
    14:00 +37°C° 0.2 mm 2 mps 741 mmHg 45%
    15:00 +35°C° 0.5 mm 2 mps 741 mmHg 54%
    16:00 +33°C° 0.5 mm 3 mps 741 mmHg 62%
    17:00 +30°C° 0.5 mm 3 mps 741 mmHg 70%
    18:00 +29°C° 0.2 mm 3 mps 741 mmHg 75%
    19:00 +28°C° 0.2 mm 2 mps 742 mmHg 80%
    20:00 +27°C° 0.2 mm 1 mps 743 mmHg 86%
    21:00 +27°C° 0.2 mm 1 mps 743 mmHg 86%
    22:00 +27°C° 0.2 mm 1 mps 743 mmHg 87%
    23:00 +26°C° 0.2 mm 1 mps 744 mmHg 87%

    Tomorrow, 21 September, Saturday

    Time Temperature Precipitation Wind Pressure Humidity
    00:00 +26°C° 1.2 mm 1 mps 744 mmHg 88%
    01:00 +26°C° 1.2 mm 2 mps 743 mmHg 89%
    02:00 +25°C° 1.2 mm 2 mps 743 mmHg 90%
    03:00 +25°C° 0.6 mm 2 mps 743 mmHg 88%
    04:00 +24°C° 0.6 mm 2 mps 744 mmHg 87%
    05:00 +24°C° 0.6 mm 2 mps 744 mmHg 85%
    06:00 +24°C° 0.2 mm 2 mps 745 mmHg 79%
    07:00 +24°C° 0.2 mm 3 mps 745 mmHg 72%
    08:00 +25°C° 0.2 mm 3 mps 746 mmHg 66%
    09:00 +26°C° 0.8 mm 3 mps 746 mmHg 62%
    10:00 +27°C° 0.8 mm 2 mps 746 mmHg 58%
    11:00 +28°C° 0.8 mm 2 mps 747 mmHg 54%
    12:00 +30°C° 0.3 mm 1 mps 746 mmHg 48%
    13:00 +32°C° 0.3 mm 1 mps 745 mmHg 42%
    14:00 +35°C° 0.3 mm 1 mps 744 mmHg 37%
    15:00 +35°C° 0 mm 1 mps 743 mmHg 36%
    16:00 +35°C° 0 mm 1 mps 743 mmHg 35%
    17:00 +35°C° 0 mm 1 mps 742 mmHg 34%
    18:00 +33°C° 0 mm 1 mps 742 mmHg 39%
    19:00 +29°C° 0 mm 0 mps 742 mmHg 44%
    20:00 +27°C° 0 mm 0 mps 743 mmHg 49%
    21:00 +29°C° 0 mm 1 mps 743 mmHg 50%
    22:00 +28°C° 0 mm 1 mps 744 mmHg 50%
    23:00 +28°C° 0 mm 2 mps 744 mmHg 51%

    Day after tomorrow, 22 September, Sunday

    Time Temperature Precipitation Wind Pressure Humidity
    00:00 +27°C° 0 mm 2 mps 744 mmHg 50%
    01:00 +27°C° 0 mm 2 mps 744 mmHg 50%
    02:00 +26°C° 0 mm 2 mps 743 mmHg 49%
    03:00 +26°C° 0 mm 2 mps 744 mmHg 48%
    04:00 +26°C° 0 mm 3 mps 744 mmHg 47%
    05:00 +26°C° 0 mm 3 mps 744 mmHg 46%
    06:00 +26°C° 0 mm 3 mps 745 mmHg 43%
    07:00 +27°C° 0 mm 4 mps 746 mmHg 40%
    08:00 +28°C° 0 mm 4 mps 746 mmHg 37%
    09:00 +30°C° 0 mm 3 mps 746 mmHg 34%
    10:00 +34°C° 0 mm 3 mps 746 mmHg 30%
    11:00 +36°C° 0 mm 3 mps 746 mmHg 27%
    12:00 +37°C° 0 mm 3 mps 746 mmHg 25%
    13:00 +39°C° 0 mm 3 mps 745 mmHg 24%
    14:00 +40°C° 0 mm 2 mps 744 mmHg 22%
    15:00 +40°C° 0 mm 2 mps 743 mmHg 23%
    16:00 +40°C° 0 mm 2 mps 742 mmHg 24%
    17:00 +39°C° 0 mm 2 mps 742 mmHg 24%
    18:00 +37°C° 0 mm 2 mps 742 mmHg 28%
    19:00 +35°C° 0 mm 2 mps 742 mmHg 32%
    20:00 +31°C° 0 mm 1 mps 742 mmHg 36%
    21:00 +31°C° 0 mm 2 mps 743 mmHg 37%
    22:00 +30°C° 0 mm 2 mps 743 mmHg 37%
    23:00 +30°C° 0 mm 2 mps 744 mmHg 38%

    23 September, Monday

    Time Temperature Precipitation Wind Pressure Humidity
    00:00 +29°C° 0 mm 2 mps 743 mmHg 39%
    01:00 +29°C° 0 mm 2 mps 743 mmHg 39%
    02:00 +28°C° 0 mm 2 mps 743 mmHg 40%
    03:00 +28°C° 0 mm 2 mps 743 mmHg 41%
    04:00 +27°C° 0 mm 2 mps 743 mmHg 41%
    05:00 +26°C° 0 mm 2 mps 743 mmHg 42%
    06:00 +28°C° 0 mm 3 mps 744 mmHg 39%
    07:00 +29°C° 0 mm 3 mps 744 mmHg 35%
    08:00 +30°C° 0 mm 3 mps 744 mmHg 32%
    09:00 +34°C° 0 mm 3 mps 745 mmHg 28%
    10:00 +37°C° 0 mm 3 mps 745 mmHg 24%
    11:00 +40°C° 0 mm 3 mps 745 mmHg 21%
    12:00 +41°C° 0 mm 2 mps 744 mmHg 19%
    13:00 +43°C° 0 mm 2 mps 743 mmHg 18%
    14:00 +45°C° 0 mm 1 mps 742 mmHg 17%
    15:00 +44°C° 0 mm 1 mps 741 mmHg 18%
    16:00 +43°C° 0 mm 1 mps 741 mmHg 19%
    17:00 +42°C° 0 mm 1 mps 740 mmHg 19%
    18:00 +40°C° 0 mm 1 mps 740 mmHg 23%
    19:00 +36°C° 0 mm 1 mps 740 mmHg 27%
    20:00 +31°C° 0 mm 0 mps 740 mmHg 31%
    21:00 +33°C° 0 mm 1 mps 741 mmHg 32%
    22:00 +32°C° 0 mm 1 mps 741 mmHg 33%
    23:00 +32°C° 0 mm 1 mps 741 mmHg 34%

    24 September, Tuesday

    Time Temperature Precipitation Wind Pressure Humidity
    00:00 +31°C° 0 mm 1 mps 741 mmHg 36%
    01:00 +31°C° 0 mm 1 mps 741 mmHg 37%
    02:00 +30°C° 0 mm 1 mps 741 mmHg 38%
    03:00 +30°C° 0 mm 1 mps 741 mmHg 39%
    04:00 +29°C° 0 mm 1 mps 742 mmHg 41%
    05:00 +29°C° 0 mm 1 mps 742 mmHg 42%
    06:00 +30°C° 0 mm 2 mps 743 mmHg 39%
    07:00 +31°C° 0 mm 3 mps 743 mmHg 37%
    08:00 +33°C° 0 mm 3 mps 744 mmHg 34%
    09:00 +35°C° 0 mm 3 mps 745 mmHg 31%
    10:00 +36°C° 0 mm 3 mps 745 mmHg 28%
    11:00 +38°C° 0 mm 3 mps 745 mmHg 24%
    12:00 +40°C° 0 mm 4 mps 745 mmHg 22%
    13:00 +41°C° 0 mm 4 mps 744 mmHg 21%
    14:00 +42°C° 0 mm 5 mps 743 mmHg 19%
    15:00 +41°C° 0 mm 4 mps 743 mmHg 20%
    16:00 +40°C° 0 mm 4 mps 742 mmHg 21%
    17:00 +38°C° 0 mm 3 mps 742 mmHg 22%
    18:00 +36°C° 0 mm 3 mps 742 mmHg 25%
    19:00 +34°C° 0 mm 2 mps 742 mmHg 28%
    20:00 +31°C° 0 mm 2 mps 742 mmHg 32%
    21:00 +30°C° 0 mm 2 mps 743 mmHg 32%
    22:00 +30°C° 0 mm 2 mps 743 mmHg 31%
    23:00 +30°C° 0 mm 2 mps 744 mmHg 31%

    25 September, Wednesday

    Time Temperature Precipitation Wind Pressure Humidity
    00:00 +30°C° 0 mm 2 mps 744 mmHg 31%
    01:00 +29°C° 0 mm 2 mps 743 mmHg 31%
    02:00 +29°C° 0 mm 2 mps 743 mmHg 30%
    03:00 +28°C° 0 mm 3 mps 743 mmHg 30%
    04:00 +28°C° 0 mm 3 mps 744 mmHg 29%
    05:00 +28°C° 0 mm 3 mps 744 mmHg 29%
    06:00 +29°C° 0 mm 3 mps 744 mmHg 27%
    07:00 +30°C° 0 mm 4 mps 745 mmHg 24%
    08:00 +32°C° 0 mm 4 mps 746 mmHg 22%
    09:00 +34°C° 0 mm 4 mps 746 mmHg 20%
    10:00 +36°C° 0 mm 3 mps 746 mmHg 18%
    11:00 +39°C° 0 mm 3 mps 747 mmHg 15%
    12:00 +40°C° 0 mm 3 mps 746 mmHg 15%
    13:00 +41°C° 0 mm 2 mps 744 mmHg 14%
    14:00 +42°C° 0 mm 2 mps 743 mmHg 14%
    15:00 +41°C° 0 mm 2 mps 743 mmHg 15%
    16:00 +41°C° 0 mm 2 mps 742 mmHg 15%
    17:00 +40°C° 0 mm 2 mps 742 mmHg 16%
    18:00 +38°C° 0 mm 2 mps 742 mmHg 19%
    19:00 +35°C° 0 mm 2 mps 742 mmHg 22%
    20:00 +31°C° 0 mm 2 mps 743 mmHg 25%
    21:00 +31°C° 0 mm 2 mps 743 mmHg 26%
    22:00 +30°C° 0 mm 2 mps 743 mmHg 26%
    23:00 +29°C° 0 mm 2 mps 744 mmHg 27%
    Show more